Opa Locka, FL

9:20 AM EDT on August 22, 2017 (GMT -0400)
Opa Locka

Weather History for KOPF - March, 2012

Change the Weather History Date:

Wednesday, March 21, 2012

  Actual Average Record
Temperature  
Mean Temperature 78 °F -  
Max Temperature 82 °F 80 °F 91 °F (2003)
Min Temperature 73 °F 62 °F 44 °F (1971)
Cooling Degree Days 12    
Growing Degree Days 28 (Base 50)    
Moisture  
Dew Point 66 °F    
Average Humidity 67    
Maximum Humidity 76    
Minimum Humidity 58    
Precipitation  
Precipitation 0.00 in - - ()
Sea Level Pressure  
Sea Level Pressure 30.11 in    
Wind  
Wind Speed 15 mph (ESE)    
Max Wind Speed 23 mph    
Max Gust Speed 29 mph    
Visibility 10 miles    
Events      
Averages and records for this station are not official NWS values.
T = Trace of Precipitation, MM = Missing Value Source: NWS Daily Summary

Daily Weather History Graph

Daily Weather History Graph

Search for Another Location

Airport or City:

Trip Planner

Search our weather history database for the weather conditions in past years. The results will help you decide how hot, cold, wet, or windy it might be!

Date:

Astronomy

Mar. 21, 2012 Rise Set
Actual Time 7:23 AM EDT 7:33 PM EDT
Civil Twilight 7:00 AM EDT 7:56 PM EDT
Nautical Twilight 6:33 AM EDT 8:22 PM EDT
Astronomical Twilight 6:06 AM EDT 8:49 PM EDT
Moon 6:32 AM EDT (3/21) 6:56 PM EDT (3/21)
Length of Visible Light 12h 55m
Length of Day
12h 09m
Waning Crescent, 1% of the Moon is Illuminated
Mar 21
Waning Crescent
Mar 22
New
Mar 30
First Quarter
Apr 6
Full
Apr 13
Last Quarter

Hourly Weather History & Observations

Time (EDT) Temp. Heat Index Dew Point Humidity Pressure Visibility Wind Dir Wind Speed Gust Speed Precip Events Conditions
12:53 AM 73.9 °F - 64.0 °F 71% 30.07 in 10.0 mi ESE 11.5 mph - N/A   Partly Cloudy
1:53 AM 73.9 °F - 66.0 °F 76% 30.08 in 10.0 mi ESE 9.2 mph - N/A   Partly Cloudy
3:53 AM 73.9 °F - 66.0 °F 76% 30.05 in 10.0 mi ESE 9.2 mph - N/A   Partly Cloudy
4:53 AM 73.9 °F - 66.0 °F 76% 30.05 in 10.0 mi ESE 10.4 mph - N/A   Mostly Cloudy
5:53 AM 73.9 °F - 66.0 °F 76% 30.06 in 10.0 mi ESE 10.4 mph - N/A   Mostly Cloudy
6:53 AM 75.0 °F - 66.0 °F 73% 30.08 in 10.0 mi ESE 17.3 mph 26.5 mph N/A   Overcast
7:53 AM 75.0 °F - 66.0 °F 73% 30.09 in 10.0 mi ESE 13.8 mph - N/A   Mostly Cloudy
8:53 AM 75.9 °F - 66.0 °F 71% 30.12 in 10.0 mi ESE 16.1 mph 24.2 mph N/A   Overcast
9:53 AM 79.0 °F - 66.0 °F 64% 30.14 in 10.0 mi ESE 18.4 mph 26.5 mph N/A   Mostly Cloudy
10:08 AM 78.8 °F - 66.2 °F 65% 30.13 in 10.0 mi ESE 21.9 mph 26.5 mph N/A   Overcast
10:38 AM 78.8 °F - 66.2 °F 65% 30.14 in 10.0 mi East 18.4 mph 24.2 mph N/A   Overcast
10:53 AM 78.1 °F - 66.0 °F 66% 30.15 in 10.0 mi ESE 23.0 mph 27.6 mph N/A   Overcast
11:12 AM 80.6 °F 82.7 °F 66.2 °F 61% 30.15 in 10.0 mi ESE 21.9 mph 28.8 mph N/A   Mostly Cloudy
11:30 AM 80.6 °F 82.7 °F 66.2 °F 61% 30.15 in 10.0 mi ESE 21.9 mph 27.6 mph N/A   Mostly Cloudy
11:53 AM 80.1 °F 82.1 °F 66.0 °F 62% 30.15 in 10.0 mi ESE 17.3 mph 27.6 mph N/A   Mostly Cloudy
12:15 PM 80.6 °F 82.7 °F 66.2 °F 61% 30.15 in 10.0 mi ESE 18.4 mph 27.6 mph N/A   Mostly Cloudy
12:53 PM 82.0 °F 84.1 °F 66.0 °F 58% 30.15 in 10.0 mi ESE 21.9 mph 27.6 mph N/A   Mostly Cloudy
1:00 PM 82.4 °F 84.6 °F 66.2 °F 58% 30.14 in 10.0 mi ESE 18.4 mph 27.6 mph N/A   Mostly Cloudy
1:45 PM 80.6 °F 82.3 °F 64.4 °F 58% 30.12 in 10.0 mi SE 17.3 mph 25.3 mph N/A   Mostly Cloudy
1:53 PM 81.0 °F 82.7 °F 64.9 °F 58% 30.12 in 10.0 mi ESE 18.4 mph 23.0 mph N/A   Mostly Cloudy
2:30 PM 80.6 °F 82.3 °F 64.4 °F 58% 30.11 in 10.0 mi ESE 16.1 mph 25.3 mph N/A   Mostly Cloudy
2:53 PM 81.0 °F 83.0 °F 66.0 °F 60% 30.11 in 10.0 mi ESE 17.3 mph 23.0 mph N/A   Mostly Cloudy
3:53 PM 81.0 °F 83.0 °F 66.0 °F 60% 30.09 in 10.0 mi ESE 17.3 mph 23.0 mph N/A   Mostly Cloudy
4:53 PM 79.0 °F - 66.0 °F 64% 30.07 in 10.0 mi ESE 13.8 mph 21.9 mph N/A   Mostly Cloudy
5:53 PM 78.1 °F - 64.9 °F 64% 30.07 in 10.0 mi East 16.1 mph 24.2 mph N/A   Mostly Cloudy
6:53 PM 77.0 °F - 66.0 °F 69% 30.09 in 10.0 mi East 13.8 mph - N/A   Mostly Cloudy
7:53 PM 75.9 °F - 66.0 °F 71% 30.09 in 10.0 mi East 12.7 mph - N/A   Overcast
8:53 PM 75.9 °F - 66.9 °F 74% 30.11 in 10.0 mi ESE 15.0 mph - 0.00 in   Overcast
9:27 PM 75.2 °F - 66.2 °F 73% 30.11 in 10.0 mi East 12.7 mph - N/A   Overcast
9:51 PM 75.2 °F - 66.2 °F 73% 30.12 in 10.0 mi ESE 16.1 mph 19.6 mph N/A   Overcast
9:53 PM 75.9 °F - 66.9 °F 74% 30.13 in 10.0 mi ESE 15.0 mph 19.6 mph N/A   Overcast
10:53 PM 75.9 °F - 66.9 °F 74% 30.14 in 10.0 mi East 16.1 mph 21.9 mph N/A   Mostly Cloudy
11:53 PM 75.9 °F - 66.9 °F 74% 30.14 in 10.0 mi ESE 15.0 mph 21.9 mph N/A   Overcast